[[{"header":{"parameterUnit":"m.s-1","parameterCategory":1,"la1":30.2991,"la2":30.254,"lo1":-89.0895,"lo2":-89.0444,"dy":0.0017,"dx":0.0017,"nx":28,"ny":28,"refTime":"2024-02-18T03:00:00:Z","depth":0,"parameterNumber":2,"parameterNumberName":"U-component_of_WINDS"},"data":[0,0,0,0,0,0,0,0,0,0,0,0,0,0,0,0,0,0,0,0,0,0,0,0,0,0,0,0,0,0,0,0,0,0,0,0,0,0,0,0,0,0,0,0,0,0,0,0,0,0,0,0,0,0,0,0,0,0,-0.7739,-0.774,0,-0.7811,-0.7812,-0.7812,-0.7805,-0.7804,-0.7803,-0.7802,-0.7876,-0.7878,-0.7881,0,0,0,0,0,0,0,0,0,0,0,0,0,-0.7594,-0.7596,-0.7739,-0.774,-0.7741,-0.7811,-0.7812,-0.7813,-0.7805,-0.7804,-0.7803,-0.7801,-0.7875,-0.7878,-0.7882,0,0,0,0,0,0,0,0,0,0,0,0,0,-0.766,-0.7597,-0.7739,-0.7745,-0.7747,-0.7811,-0.7812,-0.7813,-0.7806,-0.7804,-0.7802,-0.7801,-0.7873,-0.7878,-0.7882,-0.7944,0,0,-0.7896,-0.7898,0,0,0,0,0,0,0,0,-0.7657,-0.7666,-0.7743,-0.7745,-0.7747,-0.7797,-0.7788,-0.7857,-0.7806,-0.7783,-0.7802,-0.78,-0.7851,-0.7857,-0.7874,-0.7948,-0.7951,-0.7896,-0.7899,-0.7901,-0.7902,0,0,0,0,0,0,0,-0.7652,-0.7662,-0.7767,-0.7745,-0.7746,-0.7744,-0.7752,-0.7801,-0.7826,-0.7785,-0.7785,-0.7793,-0.7851,-0.787,-0.7876,-0.7952,-0.7896,-0.79,-0.7903,-0.7905,-0.8079,-0.808,0,0,0,0,0,0,-0.7646,-0.7659,-0.7765,-0.7769,-0.7696,-0.7748,-0.7757,-0.7783,-0.7825,-0.783,-0.7795,-0.7793,-0.7863,-0.7871,-0.7879,-0.7954,-0.7901,-0.7905,-0.7908,-0.8077,-0.8079,-0.8081,0,0,0,0,0,0,-0.7643,-0.7655,-0.7762,-0.7714,-0.7727,-0.7753,-0.7782,-0.7785,-0.7804,-0.7832,-0.7837,-0.7809,-0.7862,-0.7872,-0.7928,-0.7957,-0.7907,-0.7911,-0.8074,-0.8077,-0.808,-0.8106,0,0,0,0,0,0,-0.7639,-0.7654,-0.7679,-0.7715,-0.773,-0.7811,-0.7783,-0.7788,-0.7812,-0.781,-0.7847,-0.7852,-0.7862,-0.7921,-0.7932,-0.7962,-0.7915,-0.8072,-0.8076,-0.8079,-0.8102,-0.8109,-0.8115,0,0,0,0,0,-0.7633,-0.7683,-0.768,-0.7693,-0.7761,-0.7812,-0.7821,-0.7831,-0.7814,-0.7838,-0.7856,-0.7851,-0.7951,-0.7927,-0.7939,-0.7971,-0.807,-0.8075,-0.8079,-0.81,-0.8108,-0.8114,0,0,0,0,0,0,-0.765,-0.7688,-0.7685,-0.7748,-0.7777,-0.7811,-0.7842,-0.784,-0.7874,-0.7871,-0.7882,-0.7891,-0.7947,-0.7964,-0.7936,-0.8032,-0.8008,-0.8015,-0.802,-0.8028,-0.8034,-0.8029,-0.7919,0,0,0,0,0,-0.7661,-0.77,-0.773,-0.7783,-0.7797,-0.7817,-0.784,-0.7845,-0.7876,-0.7888,-0.791,-0.794,-0.7978,-0.8004,-0.804,-0.8104,-0.8112,-0.8131,-0.8137,-0.8142,-0.8149,-0.8184,-0.8193,-0.8095,-0.8095,-0.8095,0,0,-0.7684,-0.7709,-0.7733,-0.7787,-0.781,-0.785,-0.7828,-0.7871,-0.7901,-0.7895,-0.7949,-0.7966,-0.8,-0.8059,-0.8087,-0.8076,-0.8177,-0.8148,-0.8152,-0.8156,-0.8189,-0.8198,-0.8206,-0.8098,-0.8097,-0.8097,0,0,-0.7747,-0.777,-0.7816,-0.7839,-0.7875,-0.7887,-0.7898,-0.7932,-0.7943,-0.7998,-0.7994,-0.8029,-0.8094,-0.8119,-0.814,-0.8209,-0.8205,-0.8221,-0.8254,-0.8287,-0.8295,-0.8302,-0.8328,-0.8337,-0.8227,-0.8227,-0.8227,0,-0.7772,-0.7832,-0.784,-0.7884,-0.7907,-0.7903,-0.7949,-0.7971,-0.8017,-0.8033,-0.8019,-0.8101,-0.8124,-0.8189,-0.8206,-0.8222,-0.8235,-0.8218,-0.8293,-0.83,-0.8307,-0.8331,-0.8341,-0.8228,-0.8228,-0.8228,-0.8228,0,-0.786,-0.7902,-0.7935,-0.7979,-0.8005,-0.805,-0.8065,-0.8091,-0.8093,-0.8107,-0.8161,-0.8188,-0.823,-0.8245,-0.8247,-0.831,-0.8302,-0.8291,-0.8267,-0.8318,-0.8341,-0.835,-0.8231,-0.823,-0.823,-0.8229,0,0,-0.7939,-0.7985,-0.7997,-0.8017,-0.8054,-0.8086,-0.813,-0.8171,-0.8193,-0.8224,-0.8261,-0.8316,-0.8305,-0.8328,-0.8333,-0.8362,-0.8417,-0.8347,-0.8348,-0.836,-0.8488,-0.8498,-0.8509,-0.8413,-0.8415,-0.8416,-0.8485,0,-0.8006,-0.8085,-0.8093,-0.8163,-0.8201,-0.8196,-0.8235,-0.8261,-0.8275,-0.8309,-0.8323,-0.8362,-0.8344,-0.8359,-0.8387,-0.8404,-0.8443,-0.8399,-0.8448,-0.845,-0.8442,-0.8521,-0.8532,-0.8596,-0.8494,-0.8496,-0.8497,0,-0.8096,-0.813,-0.8204,-0.8235,-0.8251,-0.8286,-0.8323,-0.8356,-0.8385,-0.8393,-0.8418,-0.8419,-0.8464,-0.8436,-0.8498,-0.8468,-0.8488,-0.8499,-0.8502,-0.8509,-0.8478,-0.8531,-0.8616,-0.8627,-0.8511,-0.851,-0.8509,0,-0.8147,-0.821,-0.8263,-0.8279,-0.8317,-0.8341,-0.8358,-0.8386,-0.8409,-0.8442,-0.8457,-0.8494,-0.8515,-0.8543,-0.8553,-0.8532,-0.8614,-0.8588,-0.8622,-0.8622,-0.8642,-0.8641,-0.8733,-0.8652,-0.8651,-0.8651,-0.8651,0,-0.8223,-0.8269,-0.8286,-0.8319,-0.8369,-0.8377,-0.8427,-0.8442,-0.8467,-0.8502,-0.8499,-0.8532,-0.8542,-0.8576,-0.8584,-0.8634,-0.8643,-0.8651,-0.8653,-0.8652,-0.8651,-0.8667,-0.8664,-0.8654,-0.8653,-0.8653,-0.8652,0,-0.829,-0.8303,-0.836,-0.839,-0.8399,-0.8435,-0.8461,-0.8492,-0.8503,-0.8548,-0.8559,-0.8577,-0.8617,-0.8629,-0.8678,-0.8683,-0.8742,-0.8739,-0.8732,-0.8733,-0.8767,-0.8764,-0.8875,-0.889,-0.8796,-0.8797,-0.8798,0,-0.8339,-0.8374,-0.8408,-0.8431,-0.8449,-0.8486,-0.851,-0.8518,-0.8543,-0.8578,-0.8605,-0.8644,-0.8677,-0.8741,-0.8758,-0.8795,-0.8794,-0.883,-0.88,-0.8798,-0.8796,-0.8795,-0.8798,-0.8836,-0.8837,-0.8838,-0.8839,0,-0.8424,-0.8429,-0.8463,-0.85,-0.8529,-0.8558,-0.8586,-0.8605,-0.8617,-0.8645,-0.8686,-0.8711,-0.8759,-0.8799,-0.8835,-0.8852,-0.8848,-0.8848,-0.8858,-0.8859,-0.8854,-0.8858,-0.875,-0.8846,-0.8845,-0.8845,-0.8844,-0.8844,-0.8485,-0.8515,-0.8544,-0.8582,-0.8604,-0.863,-0.8661,-0.8676,-0.871,-0.8751,-0.8752,-0.8797,-0.8824,-0.8873,-0.8891,-0.8926,-0.8915,-0.893,-0.8934,-0.8938,-0.8941,-0.8847,-0.8932,-0.8932,-0.8932,-0.8932,-0.8932,0,-0.8571,-0.8589,-0.8624,-0.8663,-0.8693,-0.8685,-0.8715,-0.8741,-0.878,-0.8806,-0.8837,-0.8884,-0.8922,-0.8941,-0.8978,-0.9002,-0.9001,-0.9012,-0.9011,-0.9015,-0.8948,-0.8936,-0.9012,-0.9012,-0.9012,-0.9012,-0.9012,-0.9012,-0.862,-0.8672,-0.8679,-0.8741,-0.8758,-0.8802,-0.882,-0.8844,-0.8864,-0.8916,-0.8948,-0.896,-0.8983,-0.9022,-0.9055,-0.906,-0.9075,-0.9087,-0.9091,-0.9028,-0.902,-0.9012,-0.9001,-0.9089,-0.909,-0.9155,-0.9156,-0.9156]},{"header":{"parameterUnit":"m.s-1","parameterCategory":1,"la1":30.2991,"la2":30.254,"lo1":-89.0895,"lo2":-89.0444,"dy":0.0017,"dx":0.0017,"nx":28,"ny":28,"refTime":"2024-02-18T03:00:00:Z","depth":0,"parameterNumber":3,"parameterNumberName":"V-component_of_WINDS"},"data":[0,0,0,0,0,0,0,0,0,0,0,0,0,0,0,0,0,0,0,0,0,0,0,0,0,0,0,0,0,0,0,0,0,0,0,0,0,0,0,0,0,0,0,0,0,0,0,0,0,0,0,0,0,0,0,0,0,0,-8.9445,-8.9447,0,-8.9626,-8.9628,-8.963,-8.9523,-8.9518,-8.9512,-8.9508,-8.9687,-8.9697,-8.9706,0,0,0,0,0,0,0,0,0,0,0,0,0,-8.9,-8.9009,-8.9444,-8.9447,-8.9449,-8.9626,-8.9628,-8.9631,-8.9524,-8.9517,-8.9511,-8.9505,-8.9684,-8.9696,-8.9707,0,0,0,0,0,0,0,0,0,0,0,0,0,-8.9188,-8.9012,-8.9444,-8.9417,-8.9416,-8.9625,-8.9628,-8.9631,-8.9525,-8.9517,-8.9509,-8.9502,-8.968,-8.9694,-8.9709,-8.9953,0,0,-8.9753,-8.9759,0,0,0,0,0,0,0,0,-8.9178,-8.9205,-8.9419,-8.9419,-8.9419,-8.9544,-8.9537,-8.9739,-8.9527,-8.9484,-8.9507,-8.9498,-8.9646,-8.9662,-8.9713,-8.9961,-8.9969,-8.9754,-8.9763,-8.9769,-8.9773,0,0,0,0,0,0,0,-8.9165,-8.9196,-8.9516,-8.9422,-8.9422,-8.9394,-8.9412,-8.9575,-8.9606,-8.9487,-8.9479,-8.9503,-8.9644,-8.97,-8.9717,-8.9971,-8.9754,-8.9766,-8.9775,-8.9781,-9.0428,-9.0437,0,0,0,0,0,0,-8.9155,-8.9186,-8.951,-8.9522,-8.9277,-8.9409,-8.9429,-8.9512,-8.9604,-8.961,-8.9509,-8.9497,-8.9679,-8.97,-8.9722,-9.0015,-8.9769,-8.9782,-8.9791,-9.042,-9.043,-9.044,0,0,0,0,0,0,-8.9145,-8.9184,-8.9503,-8.9352,-8.939,-8.9424,-8.9518,-8.9519,-8.9575,-8.9621,-8.9625,-8.9561,-8.9674,-8.9702,-8.9897,-9.0019,-8.9789,-8.9802,-9.041,-9.0423,-9.0435,-9.0601,0,0,0,0,0,0,-8.9133,-8.9182,-8.9276,-8.9355,-8.9399,-8.9676,-8.9526,-8.9528,-8.9601,-8.9586,-8.967,-8.9676,-8.967,-8.9876,-8.9911,-9.0035,-8.9813,-9.0399,-9.0416,-9.0431,-9.0584,-9.0618,-9.0646,0,0,0,0,0,-8.9118,-8.9314,-8.9281,-8.9321,-8.9518,-8.9684,-8.9709,-8.9699,-8.9611,-8.9705,-8.9735,-8.9674,-9.0,-8.9897,-8.9935,-9.0066,-9.0391,-9.0411,-9.043,-9.0571,-9.0611,-9.0645,0,0,0,0,0,0,-8.9246,-8.9324,-8.9288,-8.9517,-8.9595,-8.9665,-8.9784,-8.9742,-8.9845,-8.9827,-8.9808,-8.9828,-9.0031,-9.0067,-8.995,-9.0306,-9.0182,-9.021,-9.0276,-9.0315,-9.0345,-9.0332,-8.9825,0,0,0,0,0,-8.9302,-8.9432,-8.9491,-8.9687,-8.9728,-8.975,-8.9822,-8.9808,-8.9887,-8.9918,-8.9962,-9.0039,-9.0159,-9.0239,-9.0351,-9.0589,-9.0605,-9.0698,-9.0728,-9.0753,-9.0778,-9.0906,-9.0948,-9.0503,-9.0503,-9.0502,0,0,-8.9416,-8.9475,-8.9558,-8.9714,-8.9773,-8.9907,-8.9778,-8.9925,-9.0023,-8.994,-9.0127,-9.0162,-9.0247,-9.0465,-9.0562,-9.0501,-9.0905,-9.0778,-9.0798,-9.0809,-9.0931,-9.0973,-9.101,-9.0516,-9.0514,-9.0511,0,0,-8.9694,-8.9752,-8.9921,-8.9984,-9.0075,-9.0088,-9.0129,-9.0207,-9.0228,-9.0416,-9.0356,-9.0472,-9.0679,-9.0743,-9.0802,-9.1106,-9.1053,-9.1142,-9.1303,-9.1429,-9.1464,-9.1495,-9.1604,-9.1643,-9.1167,-9.1167,-9.1167,0,-8.9825,-9.0026,-9.0013,-9.0166,-9.0236,-9.0169,-9.034,-9.04,-9.0523,-9.0573,-9.0503,-9.0763,-9.0815,-9.1047,-9.1121,-9.1171,-9.1216,-9.1133,-9.1461,-9.1492,-9.152,-9.1624,-9.1664,-9.1177,-9.1176,-9.1175,-9.1174,0,-9.0182,-9.0323,-9.0448,-9.0572,-9.0656,-9.0817,-9.0828,-9.0914,-9.0893,-9.0913,-9.1105,-9.1166,-9.1291,-9.1344,-9.1324,-9.1574,-9.1533,-9.1463,-9.1337,-9.1573,-9.167,-9.1709,-9.1192,-9.1188,-9.1185,-9.1183,0,0,-9.0546,-9.0662,-9.0708,-9.0764,-9.086,-9.0968,-9.1125,-9.1249,-9.1324,-9.1411,-9.1542,-9.1719,-9.1655,-9.1723,-9.1709,-9.1819,-9.2056,-9.1735,-9.1736,-9.1793,-9.2335,-9.2389,-9.2435,-9.2022,-9.203,-9.2035,-9.2328,0,-9.083,-9.1108,-9.1102,-9.1359,-9.1488,-9.1427,-9.1564,-9.1637,-9.1661,-9.1772,-9.1796,-9.1923,-9.1828,-9.1869,-9.1975,-9.2005,-9.2165,-9.1983,-9.2143,-9.2149,-9.2124,-9.2485,-9.2542,-9.2815,-9.2366,-9.2372,-9.2377,0,-9.1199,-9.1301,-9.1573,-9.1651,-9.1705,-9.1829,-9.1943,-9.2051,-9.2132,-9.2141,-9.2218,-9.2187,-9.2345,-9.2215,-9.2432,-9.2309,-9.2373,-9.2398,-9.2408,-9.2423,-9.2278,-9.251,-9.2902,-9.2943,-9.2436,-9.2432,-9.2427,0,-9.1438,-9.1643,-9.1832,-9.1881,-9.1978,-9.2066,-9.211,-9.2184,-9.2259,-9.2358,-9.2406,-9.2521,-9.2584,-9.2673,-9.2673,-9.2579,-9.2893,-9.2763,-9.2904,-9.2905,-9.2974,-9.2969,-9.3382,-9.3015,-9.3014,-9.3013,-9.3013,0,-9.1756,-9.1925,-9.1941,-9.2058,-9.2244,-9.2235,-9.2419,-9.2454,-9.252,-9.2641,-9.2594,-9.2708,-9.2701,-9.2816,-9.2817,-9.2997,-9.3025,-9.3036,-9.3034,-9.3041,-9.304,-9.3083,-9.3064,-9.3024,-9.3022,-9.302,-9.3018,0,-9.2055,-9.2073,-9.2275,-9.235,-9.2373,-9.2508,-9.2571,-9.2681,-9.27,-9.2854,-9.2889,-9.2919,-9.3052,-9.3061,-9.3214,-9.3214,-9.3433,-9.341,-9.3407,-9.3403,-9.3544,-9.3531,-9.4,-9.4061,-9.3653,-9.3657,-9.366,0,-9.2257,-9.2386,-9.2476,-9.2555,-9.2605,-9.2732,-9.2809,-9.2805,-9.2887,-9.299,-9.3088,-9.3217,-9.332,-9.3535,-9.3569,-9.3686,-9.3665,-9.3822,-9.3682,-9.3685,-9.3668,-9.3661,-9.3674,-9.3849,-9.3853,-9.3857,-9.386,0,-9.2615,-9.2618,-9.2732,-9.2852,-9.2946,-9.3038,-9.3124,-9.3191,-9.3196,-9.3291,-9.3428,-9.3508,-9.3666,-9.3794,-9.3909,-9.3951,-9.3907,-9.3903,-9.3942,-9.3951,-9.3944,-9.395,-9.3481,-9.3893,-9.3889,-9.3887,-9.3885,-9.3884,-9.2872,-9.2984,-9.3066,-9.3195,-9.326,-9.3342,-9.345,-9.3483,-9.3598,-9.3728,-9.3717,-9.3869,-9.3947,-9.4097,-9.4148,-9.4266,-9.4212,-9.4269,-9.4283,-9.4297,-9.4313,-9.3925,-9.4286,-9.4285,-9.4284,-9.4284,-9.4283,0,-9.3228,-9.3278,-9.3397,-9.3521,-9.3623,-9.3574,-9.3667,-9.3755,-9.389,-9.3967,-9.4071,-9.4228,-9.4353,-9.4398,-9.4518,-9.4604,-9.4587,-9.4636,-9.463,-9.464,-9.4353,-9.4308,-9.4648,-9.4648,-9.4648,-9.4648,-9.4648,-9.4648,-9.3425,-9.3613,-9.3625,-9.3844,-9.3891,-9.4042,-9.4099,-9.4174,-9.4236,-9.4415,-9.452,-9.4549,-9.4613,-9.4739,-9.485,-9.486,-9.4907,-9.4965,-9.4966,-9.4697,-9.466,-9.4625,-9.4583,-9.4975,-9.4976,-9.5244,-9.5246,-9.5248]}]]